Location: Anumalkud?ru
(16.4847°N, 80.6636°E)
Time: 15:05:06
(UTC+00:00)

CZ-4 R/B - Pass Details

Date: 11 April 2026
Orbit: 546 x 550 km, 97.6° (Epoch: 11 May)

Event Time Altitude Azimuth Distance (km) Brightness Sun altitude
Rises 13:05:06 0° 169° (SSE) 2,698 7.6 -3.9°
Reaches altitude 10° 13:07:13 10° 169° (S) 1,807 6.8 -4.4°
Maximum altitude 13:11:08 88° 262° (W) 549 4.4 -5.4°
Drops below altitude 10° 13:15:03 10° 348° (NNW) 1,811 7.3 -6.3°
Sets 13:17:10 0° 349° (N) 2,705 8.2 -6.8°
